Frying Pan Shoals, NC Buoy (41013)

Conditions for Monday

Daily
Weekly
Monthly
Marine Data Graph

Marine & Boating Location Search

Enter a coastal zip code for marine weather.

General Information

Location: 33.436 North -77.743 West
Buoy Type: 3-meter discus buoy
Buoy Hull: 3D55
Payload: AMPS payload
Owned by: NDBC
Windspeed: Measured by obtained from anemometer
Sea Surface: Measured by Intake
Note:
 

Weather and Wave Data

Time Temp Humidity Wind Dominant Wave Wind Wave Wave Swell Pressure
  Air
(°F)
Water
(°F)
  Dir Speed
(kts)
Speed
(mph)
Period
(sec)
Height
(ft)
Range
(ft)
Period
(sec)
Height
(ft)
Range
(ft)
Period
(sec)
Height
(ft)
Range
(ft)
Atmo.
(in)
Tend.
(in)
20:50 43 62 33 WNW 21.4 24.6 6 5.58 exactly 5.6 6 4.92 4.10 - 5.74 11 1.64 0.82 - 2.46 30.26 +0.07
21:50 44 62 33 WNW 19.4 22.4 6 5.91 exactly 5.9 6 4.92 4.10 - 5.74 12 1.64 0.82 - 2.46 30.29 +0.07
22:50 45 62 32 West 17.5 20.1 6 5.25 exactly 5.2 6 4.92 4.10 - 5.74 12 1.64 0.82 - 2.46 30.29 +0.05
23:50 45 61 30 West 15.6 17.9 6 4.27 exactly 4.3 6 3.28 2.46 - 4.10 13 1.64 0.82 - 2.46 30.29 +0.02
00:50 46 61 27 West 17.5 20.1 12 3.94 exactly 3.9 5 3.28 2.46 - 4.10 12 1.64 0.82 - 2.46 30.30 -
01:50 47 61 27 WNW 17.5 20.1 4 3.61 exactly 3.6 4 3.28 2.46 - 4.10 12 1.64 0.82 - 2.46 30.30 +0.01
02:50 47 61 27 WNW 17.5 20.1 5 3.94 exactly 3.9 5 3.28 2.46 - 4.10 12 1.64 0.82 - 2.46 30.30 +0.02
03:50 47 61 29 NW 13.6 15.7 5 3.61 exactly 3.6 5 3.28 2.46 - 4.10 11 1.64 0.82 - 2.46 30.32 +0.02
04:50 46 61 29 NW 13.6 15.7 5 3.61 exactly 3.6 5 3.28 2.46 - 4.10 11 1.64 0.82 - 2.46 30.33 +0.03
05:50 45 61 28 NNW 13.6 15.7 5 3.61 exactly 3.6 5 3.28 2.46 - 4.10 11 1.64 0.82 - 2.46 30.36 +0.05
06:50 43 61 40 North 13.6 15.7 11 3.28 exactly 3.3 6 3.28 2.46 - 4.10 11 1.64 0.82 - 2.46 30.37 +0.06
07:50 44 61 39 North 11.7 13.4 11 3.28 exactly 3.3 5 3.28 2.46 - 4.10 11 1.64 0.82 - 2.46 30.40 +0.07
08:50 44 61 31 NNE 11.7 13.4 11 2.95 exactly 3.0 5 1.64 0.82 - 2.46 11 1.64 0.82 - 2.46 30.43 +0.08
09:50 45 61 33 NE 9.7 11.2 11 2.62 exactly 2.6 4 1.64 0.82 - 2.46 11 1.64 0.82 - 2.46 30.44 +0.07
10:50 45 61 30 NE 11.7 13.4 11 2.62 exactly 2.6 5 1.64 0.82 - 2.46 11 1.64 0.82 - 2.46 30.44 +0.04
11:50 46 61 29 NE 9.7 11.2 11 2.62 exactly 2.6 4 1.64 0.82 - 2.46 11 1.64 0.82 - 2.46 30.44 +0.01
12:50 46 62 25 ENE 7.8 8.9 11 2.95 exactly 3.0 4 1.64 0.82 - 2.46 11 3.28 2.46 - 4.10 30.42 -0.02
13:50 47 62 22 ENE 5.8 6.7 11 3.28 exactly 3.3 3 1.64 0.82 - 2.46 11 3.28 2.46 - 4.10 30.40 -0.04
14:50 48 62 21 East 3.9 4.5 11 3.28 exactly 3.3 4 1.64 0.82 - 2.46 11 3.28 2.46 - 4.10 30.40 -0.04
15:50 49 62 24 East 1.9 2.2 11 3.61 exactly 3.6 4 1.64 0.82 - 2.46 11 3.28 2.46 - 4.10 30.40 -0.02
16:50 51 62 20 South 3.9 4.5 11 3.28 exactly 3.3 4 1.64 0.82 - 2.46 11 3.28 2.46 - 4.10 30.39 -0.01
17:50 51 62 26 SSE 5.8 6.7 11 3.28 exactly 3.3 4 1.64 0.82 - 2.46 11 3.28 2.46 - 4.10 30.39 -0.01
18:50 52 62 31 South 9.7 11.2 11 3.28 exactly 3.3 4 1.64 0.82 - 2.46 11 3.28 2.46 - 4.10 30.38 -0.01
19:50 53 61 38 South 13.6 15.7 11 3.28 exactly 3.3 5 1.64 0.82 - 2.46 11 3.28 2.46 - 4.10 30.37 -0.03
20:50 54 61 43 SSW 13.6 15.7 11 3.28 exactly 3.3 5 1.64 0.82 - 2.46 11 3.28 2.46 - 4.10 30.36 -0.03
21:50 55 61 44 SSW 11.7 13.4 11 3.61 exactly 3.6 3 1.64 0.82 - 2.46 11 3.28 2.46 - 4.10 30.35 -0.03
22:50 57 62 45 South 13.6 15.7 11 3.61 exactly 3.6 3 1.64 0.82 - 2.46 11 3.28 2.46 - 4.10 30.31 -0.05
23:50 58 62 45 SSW 9.7 11.2 10 3.61 exactly 3.6 3 1.64 0.82 - 2.46 10 3.28 2.46 - 4.10 30.30 -0.06
00:50 59 62 44 South 9.7 11.2 11 3.28 exactly 3.3 3 1.64 0.82 - 2.46 11 3.28 2.46 - 4.10 30.28 -0.07
01:50 61 62 39 SSW 15.6 17.9 11 3.28 exactly 3.3 3 1.64 0.82 - 2.46 11 3.28 2.46 - 4.10 30.26 -0.05
02:50 62 62 42 SSW 17.5 20.1 - - - - - - 30.23 -0.06
03:50 62 63 47 SSW 15.6 17.9 4 3.61 exactly 3.6 4 3.28 2.46 - 4.10 11 1.64 0.82 - 2.46 30.21 -0.08

Detailed Wave Spectra

Time Water Depth Wave Height Spectral Peak Period Average Wave Period Sampling Interval Wave Record
20:00 79 ft 6.04 ft 6.3 sec 5.0 sec 0.6 sec 2400 sec
21:00 79 ft 5.51 ft 5.9 sec 5.0 sec 0.6 sec 2400 sec
22:00 79 ft 6.00 ft 6.3 sec 5.0 sec 0.6 sec 2400 sec
00:00 79 ft 4.30 ft 5.6 sec 4.6 sec 0.6 sec 2400 sec
03:00 79 ft 3.81 ft 5.0 sec 4.2 sec 0.6 sec 2400 sec
04:00 79 ft 3.74 ft 5.0 sec 4.2 sec 0.6 sec 2400 sec
05:00 79 ft 3.48 ft 5.0 sec 4.4 sec 0.6 sec 2400 sec
06:00 79 ft 3.61 ft 5.3 sec 4.4 sec 0.6 sec 2400 sec
08:00 79 ft 3.25 ft 11.4 sec 4.3 sec 0.6 sec 2400 sec
10:00 79 ft 2.76 ft 10.8 sec 4.6 sec 0.6 sec 2400 sec
12:00 79 ft 2.62 ft 10.8 sec 4.5 sec 0.6 sec 2400 sec
13:00 79 ft 2.82 ft 10.8 sec 5.2 sec 0.6 sec 2400 sec
14:00 79 ft 3.22 ft 11.4 sec 6.2 sec 0.6 sec 2400 sec
15:00 79 ft 3.31 ft 11.4 sec 6.1 sec 0.6 sec 2400 sec
16:00 79 ft 3.44 ft 10.8 sec 6.3 sec 0.6 sec 2400 sec
18:00 79 ft 3.35 ft 11.4 sec 6.4 sec 0.6 sec 2400 sec
19:00 79 ft 3.15 ft 11.4 sec 6.6 sec 0.6 sec 2400 sec
20:00 79 ft 3.31 ft 10.8 sec 5.9 sec 0.6 sec 2400 sec
21:00 79 ft 3.35 ft 10.8 sec 5.5 sec 0.6 sec 2400 sec
23:00 79 ft 3.61 ft 10.8 sec 5.4 sec 0.6 sec 2400 sec
00:00 79 ft 3.61 ft 10.0 sec 5.4 sec 0.6 sec 2400 sec
01:00 79 ft 3.18 ft 11.4 sec 5.3 sec 0.6 sec 2400 sec
02:00 79 ft 3.18 ft 10.8 sec 4.8 sec 0.6 sec 2400 sec